Location: Ferma
(41.9500°N, 44.5167°E)
Time: 12:12:41
(UTC+00:00)

Cosmos 1269 Rocket - Pass Details

Date: 30 May 2022
Orbit: 773 x 778 km, 74.1° (Epoch: 01 July)

Event Time Altitude Azimuth Distance (km) Brightness Sun altitude
Rises 20:11:42 0° 355° (N) 3,258 8.6 -25.2°
Reaches altitude 10° 20:15:18 10° 21° (NNE) 2,326 7.2 -25.4°
Maximum altitude 20:18:04 14° 52° (NE) 2,045 6.5 -25.5°
Drops below altitude 10° 20:20:49 10° 84° (E) 2,321 6.4 -25.6°
Enters shadow 20:21:14 - 88° (E) 2,404 6.5 -25.6°
